• In Schweiz
  • Länderverzeichnis
  • Für 7 Tage
  • Wassertemperatur
  • Satellitenkarten
  • Wetterkarte
  • Widgets
  • user-avatar
    Anmelden

    Stündliche Wetter Lillehammer

    Heute, 24 November, Freitag

    Zeit Temperatur Niederschläge Wind Luftdruck Luftfeuchtigkeit
    00:00 -3°C° 0 mm 4 m/S 694 mmHg 86%
    01:00 -4°C° 0 mm 3 m/S 695 mmHg 87%
    02:00 -4°C° 0 mm 3 m/S 695 mmHg 89%
    03:00 -4°C° 0 mm 2 m/S 696 mmHg 91%
    04:00 -5°C° 0 mm 2 m/S 696 mmHg 92%
    05:00 -5°C° 0 mm 2 m/S 697 mmHg 92%
    06:00 -6°C° 0 mm 2 m/S 698 mmHg 92%
    07:00 -6°C° 0 mm 2 m/S 698 mmHg 91%
    08:00 -6°C° 0 mm 2 m/S 699 mmHg 91%
    09:00 -7°C° 0 mm 3 m/S 699 mmHg 91%
    10:00 -7°C° 0 mm 3 m/S 700 mmHg 90%
    11:00 -6°C° 0 mm 3 m/S 700 mmHg 88%
    12:00 -5°C° 0 mm 3 m/S 700 mmHg 86%
    13:00 -4°C° 0 mm 4 m/S 701 mmHg 84%
    14:00 -5°C° 0 mm 4 m/S 701 mmHg 85%
    15:00 -5°C° 0 mm 4 m/S 701 mmHg 86%
    16:00 -5°C° 0 mm 4 m/S 701 mmHg 86%
    17:00 -7°C° 0 mm 4 m/S 701 mmHg 87%
    18:00 -7°C° 0 mm 4 m/S 702 mmHg 87%
    19:00 -6°C° 0 mm 3 m/S 702 mmHg 88%
    20:00 -6°C° 0 mm 3 m/S 702 mmHg 88%
    21:00 -6°C° 0 mm 3 m/S 702 mmHg 89%
    22:00 -7°C° 0 mm 3 m/S 703 mmHg 90%
    23:00 -7°C° 0 mm 3 m/S 703 mmHg 90%

    Morgen, 25 November, Samstag

    Zeit Temperatur Niederschläge Wind Luftdruck Luftfeuchtigkeit
    00:00 -7°C° 0 mm 3 m/S 703 mmHg 91%
    01:00 -8°C° 0 mm 3 m/S 703 mmHg 91%
    02:00 -7°C° 0 mm 2 m/S 703 mmHg 92%
    03:00 -7°C° 0 mm 2 m/S 703 mmHg 93%
    04:00 -8°C° 0 mm 2 m/S 703 mmHg 93%
    05:00 -8°C° 0 mm 2 m/S 703 mmHg 94%
    06:00 -8°C° 0 mm 2 m/S 703 mmHg 95%
    07:00 -8°C° 0 mm 2 m/S 703 mmHg 96%
    08:00 -7°C° 0 mm 2 m/S 703 mmHg 95%
    09:00 -7°C° 0 mm 2 m/S 703 mmHg 95%
    10:00 -7°C° 0 mm 2 m/S 703 mmHg 95%
    11:00 -7°C° 0 mm 3 m/S 703 mmHg 94%
    12:00 -6°C° 0 mm 3 m/S 703 mmHg 93%
    13:00 -6°C° 0 mm 3 m/S 703 mmHg 92%
    14:00 -6°C° 0 mm 3 m/S 703 mmHg 92%
    15:00 -6°C° 0 mm 3 m/S 703 mmHg 93%
    16:00 -6°C° 0 mm 3 m/S 703 mmHg 94%
    17:00 -6°C° 0 mm 3 m/S 703 mmHg 94%
    18:00 -6°C° 0 mm 3 m/S 702 mmHg 94%
    19:00 -6°C° 0 mm 3 m/S 702 mmHg 94%
    20:00 -5°C° 0,2 mm 3 m/S 702 mmHg 94%
    21:00 -5°C° 0,2 mm 4 m/S 702 mmHg 94%
    22:00 -4°C° 0,2 mm 4 m/S 702 mmHg 94%
    23:00 -4°C° 0,2 mm 4 m/S 702 mmHg 94%

    übermorgen, 26 November, Sonntag

    Zeit Temperatur Niederschläge Wind Luftdruck Luftfeuchtigkeit
    00:00 -4°C° 0,2 mm 3 m/S 702 mmHg 95%
    01:00 -4°C° 0,2 mm 3 m/S 702 mmHg 95%
    02:00 -4°C° 0,1 mm 3 m/S 702 mmHg 96%
    03:00 -3°C° 0,1 mm 2 m/S 701 mmHg 96%
    04:00 -3°C° 0,1 mm 2 m/S 701 mmHg 97%
    05:00 -4°C° 0 mm 2 m/S 701 mmHg 97%
    06:00 -4°C° 0 mm 2 m/S 701 mmHg 97%
    07:00 -4°C° 0 mm 2 m/S 701 mmHg 96%
    08:00 -4°C° 0 mm 2 m/S 701 mmHg 96%
    09:00 -4°C° 0 mm 2 m/S 701 mmHg 96%
    10:00 -4°C° 0 mm 2 m/S 701 mmHg 96%
    11:00 -4°C° 0 mm 2 m/S 701 mmHg 95%
    12:00 -1°C° 0 mm 1 m/S 701 mmHg 95%
    13:00 -1°C° 0 mm 1 m/S 701 mmHg 94%
    14:00 -2°C° 0 mm 1 m/S 701 mmHg 94%
    15:00 -2°C° 0 mm 1 m/S 702 mmHg 95%
    16:00 -3°C° 0 mm 1 m/S 702 mmHg 95%
    17:00 -3°C° 0 mm 1 m/S 703 mmHg 94%
    18:00 -3°C° 0 mm 1 m/S 703 mmHg 93%
    19:00 -3°C° 0 mm 1 m/S 704 mmHg 92%
    20:00 -6°C° 0 mm 2 m/S 704 mmHg 91%
    21:00 -6°C° 0 mm 2 m/S 705 mmHg 90%
    22:00 -6°C° 0 mm 2 m/S 705 mmHg 90%
    23:00 -6°C° 0 mm 2 m/S 706 mmHg 89%

    27 November, Montag

    Zeit Temperatur Niederschläge Wind Luftdruck Luftfeuchtigkeit
    00:00 -7°C° 0 mm 2 m/S 706 mmHg 89%
    01:00 -7°C° 0 mm 2 m/S 707 mmHg 88%
    02:00 -7°C° 0 mm 2 m/S 707 mmHg 88%
    03:00 -8°C° 0 mm 2 m/S 707 mmHg 88%
    04:00 -8°C° 0 mm 2 m/S 707 mmHg 87%
    05:00 -7°C° 0 mm 1 m/S 708 mmHg 87%
    06:00 -7°C° 0 mm 1 m/S 708 mmHg 87%
    07:00 -8°C° 0 mm 1 m/S 708 mmHg 87%
    08:00 -8°C° 0 mm 1 m/S 708 mmHg 87%
    09:00 -7°C° 0 mm 1 m/S 709 mmHg 87%
    10:00 -7°C° 0 mm 1 m/S 709 mmHg 86%
    11:00 -7°C° 0 mm 1 m/S 709 mmHg 86%
    12:00 -6°C° 0 mm 1 m/S 709 mmHg 85%
    13:00 -6°C° 0 mm 1 m/S 709 mmHg 85%
    14:00 -6°C° 0 mm 1 m/S 709 mmHg 85%
    15:00 -7°C° 0 mm 1 m/S 709 mmHg 86%
    16:00 -8°C° 0 mm 1 m/S 709 mmHg 87%
    17:00 -8°C° 0 mm 1 m/S 710 mmHg 87%
    18:00 -8°C° 0 mm 1 m/S 710 mmHg 86%
    19:00 -8°C° 0 mm 1 m/S 710 mmHg 86%
    20:00 -8°C° 0 mm 1 m/S 710 mmHg 87%
    21:00 -9°C° 0 mm 0 m/S 710 mmHg 87%
    22:00 -9°C° 0 mm 0 m/S 710 mmHg 87%
    23:00 -9°C° 0 mm 0 m/S 710 mmHg 88%

    28 November, Dienstag

    Zeit Temperatur Niederschläge Wind Luftdruck Luftfeuchtigkeit
    00:00 -9°C° 0 mm 0 m/S 710 mmHg 88%
    01:00 -9°C° 0 mm 0 m/S 710 mmHg 89%
    02:00 -9°C° 0 mm 1 m/S 710 mmHg 89%
    03:00 -9°C° 0 mm 1 m/S 710 mmHg 90%
    04:00 -9°C° 0 mm 1 m/S 710 mmHg 90%
    05:00 -8°C° 0 mm 1 m/S 710 mmHg 91%
    06:00 -8°C° 0 mm 1 m/S 710 mmHg 92%
    07:00 -7°C° 0 mm 1 m/S 710 mmHg 92%
    08:00 -6°C° 0,1 mm 1 m/S 710 mmHg 92%
    09:00 -6°C° 0,1 mm 1 m/S 710 mmHg 93%
    10:00 -6°C° 0,1 mm 1 m/S 710 mmHg 93%
    11:00 -4°C° 0,1 mm 1 m/S 710 mmHg 93%
    12:00 -4°C° 0,1 mm 1 m/S 710 mmHg 93%
    13:00 -3°C° 0,1 mm 1 m/S 709 mmHg 93%
    14:00 -3°C° 0,3 mm 1 m/S 709 mmHg 93%
    15:00 -3°C° 0,3 mm 1 m/S 709 mmHg 94%
    16:00 -4°C° 0,3 mm 1 m/S 709 mmHg 95%
    17:00 -4°C° 0,4 mm 1 m/S 709 mmHg 95%
    18:00 -3°C° 0,4 mm 1 m/S 709 mmHg 95%
    19:00 -5°C° 0,4 mm 2 m/S 709 mmHg 95%
    20:00 -5°C° 0,4 mm 2 m/S 708 mmHg 95%
    21:00 -5°C° 0,4 mm 2 m/S 708 mmHg 95%
    22:00 -5°C° 0,4 mm 2 m/S 708 mmHg 95%
    23:00 -5°C° 0,4 mm 2 m/S 708 mmHg 95%

    29 November, Mittwoch

    Zeit Temperatur Niederschläge Wind Luftdruck Luftfeuchtigkeit
    00:00 -5°C° 0,4 mm 2 m/S 708 mmHg 95%
    01:00 -5°C° 0,4 mm 2 m/S 708 mmHg 95%
    02:00 -5°C° 0,4 mm 2 m/S 708 mmHg 95%
    03:00 -5°C° 0,4 mm 2 m/S 708 mmHg 95%
    04:00 -5°C° 0,4 mm 2 m/S 708 mmHg 95%
    05:00 -5°C° 0,3 mm 2 m/S 707 mmHg 95%
    06:00 -3°C° 0,3 mm 1 m/S 707 mmHg 95%
    07:00 -3°C° 0,3 mm 1 m/S 707 mmHg 95%
    08:00 -3°C° 0,2 mm 1 m/S 707 mmHg 95%
    09:00 -3°C° 0,2 mm 1 m/S 707 mmHg 95%
    10:00 -3°C° 0,2 mm 1 m/S 707 mmHg 94%
    11:00 -2°C° 0,2 mm 1 m/S 707 mmHg 94%
    12:00 -2°C° 0,2 mm 1 m/S 707 mmHg 94%
    13:00 -2°C° 0,2 mm 1 m/S 707 mmHg 94%
    14:00 -2°C° 0,2 mm 1 m/S 707 mmHg 94%
    15:00 -2°C° 0,2 mm 1 m/S 707 mmHg 94%
    16:00 -2°C° 0,2 mm 1 m/S 707 mmHg 95%
    17:00 -2°C° 0,3 mm 1 m/S 707 mmHg 95%
    18:00 -2°C° 0,3 mm 1 m/S 707 mmHg 95%
    19:00 -2°C° 0,3 mm 1 m/S 707 mmHg 95%
    20:00 -2°C° 0,2 mm 1 m/S 707 mmHg 95%
    21:00 -2°C° 0,2 mm 1 m/S 707 mmHg 95%
    22:00 -2°C° 0,2 mm 1 m/S 707 mmHg 95%
    23:00 -2°C° 0,4 mm 1 m/S 707 mmHg 95%
    Mehr zeigen